Tracking 35237 objects as of 6-Sep-2026
HD Live streaming from Space Station
objects crossing your sky now

CZ-3B DEB

Track CZ-3B DEB now!


NORAD ID: 40193
Int'l Code: 2011-077S
Launch date: December 19, 2011
Source: People's Republic of China (PRC)
Launch site: Xichang Space Center, China (XSC)

Note: This is SATELLITE DEBRIS
Your satellite tracking list
Your tracking list is empty




NASA's NSSDC Master Catalog

Two Line Element Set (TLE):
1 40193U 11077S   26246.51213705 -.00000178  00000-0 -16726-2 0  9999
2 40193  26.7735  10.8269 7416173  10.3765 358.7847  1.86779455 77622
Source of the keplerian elements: AFSPC